Location: Martin Dies, Jr. State Park
(30.8429°N, 94.1720°W)
Time: 21:08:06
(UTC-06:00)

Envisat - Visible Passes

Search period start: 13 November 2019 00:00
Search period end: 23 November 2019 00:00
Orbit: 764 x 766 km, 98.1° (Epoch: 13 November)

Date Brightness Start Highest point End Pass type
(mag) Time Alt. Az. Time Alt. Az. Time Alt. Az.
13 Nov 2.9 18:17:06 10° SSE 18:22:09 72° ENE 18:27:12 10° N visible
14 Nov 3.8 17:41:14 10° SE 17:45:34 29° ENE 17:49:55 10° NNE visible
14 Nov 5.3 19:20:26 10° SSW 19:24:29 24° W 19:28:34 10° NW visible
15 Nov 6.1 05:56:37 10° ENE 05:59:36 16° E 06:02:34 10° SE visible
15 Nov 3.5 18:42:37 10° S 18:47:37 60° W 18:52:38 10° NNW visible
16 Nov 3.1 18:05:59 10° SSE 18:10:54 55° ENE 18:15:52 10° N visible
16 Nov 6.1 19:48:05 10° WSW 19:50:10 12° W 19:52:15 10° WNW visible
17 Nov 4.8 19:08:42 10° SSW 19:13:10 31° W 19:17:40 10° NW visible
18 Nov 6.4 05:46:32 10° ENE 05:48:14 12° E 05:49:56 10° ESE visible
18 Nov 3.1 18:31:17 10° S 18:36:20 79° WSW 18:41:26 10° NNW visible
19 Nov 3.3 17:54:57 10° SE 17:59:41 42° ENE 18:04:27 10° N visible
19 Nov 5.8 19:35:38 10° SW 19:38:48 17° W 19:41:59 10° NW visible
20 Nov 5.8 06:09:57 10° NE 06:13:54 23° E 06:17:51 10° SSE visible
20 Nov 4.3 18:57:06 10° S 19:01:51 41° W 19:06:38 10° NNW visible
21 Nov 2.9 18:20:01 10° SSE 18:25:05 80° ENE 18:30:10 10° N visible
22 Nov 3.7 17:44:01 10° SE 17:48:29 32° ENE 17:52:58 10° N visible
22 Nov 5.4 19:23:37 10° SW 19:27:28 22° W 19:31:20 10° NW visible
